Wind_Speed
37 39 38 34 33 36 38 39 39 40 41 42 42 42 42 41 38 36 36 37 37 39 37 36 37 37 36 34 34 35 33 32 32 31 30 29 29 29 30 31 31 31 31 29 28 29 30 30 29 29 29 29 29 29 29 29 30 30 31 31 32 33 34 35 35 34 34 35 35 34 33 33 32 32 32 32 32 32 32 33 33 34 35 37 39 40
40 41 37 33 35 38 39 39 40 40 41 42 42 42 41 39 37 36 36 36 37 38 36 35 37 36 35 34 34 34 34 33 33 33 31 29 27 27 28 29 30 31 32 31 30 31 32 33 33 33 34 34 34 33 33 33 33 33 33 33 33 33 34 35 36 36 35 36 36 36 36 35 34 33 33 33 33 33 33 34 34 35 35 36 37 38
43 42 37 36 39 40 40 40 40 40 40 40 40 40 38 36 36 36 36 36 36 36 36 36 36 36 34 33 34 35 34 33 34 35 33 29 27 27 27 28 29 30 32 33 33 33 34 35 36 37 38 38 38 38 38 38 37 37 36 35 34 34 35 35 36 36 36 36 37 37 38 37 36 35 34 34 34 34 35 36 37 37 38 38 38 39
44 40 37 39 40 40 40 40 39 38 37 38 38 37 35 33 35 36 35 36 36 36 36 37 38 38 35 34 36 36 35 34 36 36 34 31 30 29 28 29 29 30 31 33 34 35 36 36 37 38 39 40 40 41 41 42 42 41 41 39 36 35 35 36 36 36 37 37 38 38 39 40 40 39 39 38 38 38 38 39 39 40 40 41 41 42
43 38 37 39 39 39 40 38 36 36 37 37 35 34 33 33 35 36 36 37 38 38 39 40 42 41 36 36 37 37 36 36 37 37 34 33 32 31 31 31 31 32 32 34 35 36 37 38 39 40 41 42 42 43 44 45 45 45 44 43 40 38 37 37 38 39 39 40 40 40 41 42 42 42 43 43 43 43 43 43 43 43 43 44 44 45
40 36 37 38 38 38 39 37 34 35 37 35 32 33 35 34 35 36 38 40 41 42 42 43 45 43 39 38 38 36 37 38 37 36 35 35 34 33 33 33 34 34 35 36 37 39 40 41 41 42 43 44 44 44 45 46 47 47 47 45 43 41 40 40 42 43 44 44 44 45 45 45 46 46 45 46 46 47 47 47 47 47 47 47 47 48
37 34 36 37 36 37 37 34 33 35 36 33 32 35 36 36 37 38 40 41 43 43 43 44 45 42 41 41 39 39 41 41 38 36 36 36 35 34 34 35 36 38 39 40 41 42 43 43 44 44 44 45 46 46 46 46 47 48 48 47 46 44 43 44 45 47 48 49 50 51 52 52 52 52 50 49 49 49 49 49 50 51 51 52 51 51
35 34 34 34 34 34 33 33 35 37 37 35 35 36 37 37 38 39 40 41 42 42 44 45 43 41 42 42 41 43 44 43 40 39 37 37 36 36 37 39 41 43 44 45 46 46 46 46 45 45 45 46 46 47 47 47 48 49 49 49 49 47 47 47 49 51 53 54 55 55 56 57 57 57 57 55 54 52 51 52 52 53 54 55 56 56
35 34 33 32 32 32 33 35 37 38 38 38 37 37 37 38 38 38 39 40 41 41 44 43 40 41 43 42 44 46 45 44 43 42 40 40 39 40 42 44 46 47 48 49 49 49 48 47 46 45 44 45 45 46 47 47 48 49 50 50 50 50 50 51 52 54 56 58 59 59 60 60 61 61 61 61 60 59 57 55 55 56 57 58 59 59
36 35 34 33 33 33 35 36 37 38 38 38 37 38 38 38 38 39 40 40 41 43 44 41 39 43 45 44 46 48 46 46 46 45 45 45 45 45 46 47 48 50 51 51 50 50 48 46 44 44 43 43 44 44 46 47 48 49 50 51 52 52 52 53 54 56 59 61 62 63 64 64 65 65 65 65 66 65 64 63 60 59 59 60 61 62
38 38 37 36 36 36 37 37 37 37 37 37 37 37 37 38 39 40 42 42 44 46 44 41 42 46 48 47 46 47 48 48 48 48 48 48 49 49 49 50 51 52 53 54 52 51 50 49 47 46 45 44 43 44 45 47 48 50 51 51 51 52 53 54 55 57 59 62 64 66 67 68 68 69 69 70 70 70 70 69 68 65 62 61 62 63
40 41 40 39 40 40 39 38 38 37 37 37 37 37 38 40 42 43 45 45 47 49 46 44 46 48 51 50 48 49 50 50 50 49 49 50 51 51 52 53 54 55 56 56 55 53 52 51 50 49 48 47 46 46 46 48 50 52 53 53 52 52 53 55 56 57 59 61 64 66 68 69 71 72 73 73 74 74 73 73 72 71 68 66 64 65
41 42 42 42 42 41 41 40 39 38 38 39 39 39 41 44 45 47 48 49 50 51 48 48 50 52 53 51 49 50 51 51 51 50 50 51 52 54 56 56 56 57 57 57 56 54 52 50 49 49 49 48 47 47 49 51 52 54 55 57 57 55 54 54 56 57 58 60 62 65 67 69 71 72 74 75 76 77 77 76 75 74 73 72 70 69
41 42 42 43 43 43 43 42 41 42 43 43 43 44 46 47 49 51 51 51 52 51 49 51 54 56 54 51 51 51 51 52 52 51 52 53 55 57 59 59 58 57 57 56 55 54 52 51 50 50 49 48 48 49 50 53 55 56 57 58 59 58 56 56 56 57 58 61 63 65 67 69 70 72 74 76 77 78 79 78 77 76 75 75 75 74
43 43 43 43 44 44 44 44 44 45 46 47 47 48 49 50 50 52 52 52 53 52 51 53 56 56 54 51 51 52 53 53 53 53 55 57 59 60 59 59 58 57 56 55 54 54 54 54 54 53 53 52 52 52 52 53 56 57 58 58 59 60 60 58 57 57 59 61 63 66 68 69 70 72 74 76 78 80 81 81 81 79 78 77 77 77
46 46 46 45 45 46 46 47 47 48 48 50 50 50 51 50 49 51 52 52 53 53 53 54 55 55 53 51 51 52 53 54 55 57 59 60 60 60 59 59 58 58 57 56 55 55 56 57 57 57 57 56 55 55 54 55 56 58 60 61 62 62 62 61 60 60 61 62 64 66 68 70 72 73 74 76 78 79 81 82 83 83 82 81 80 79
49 49 48 48 48 48 49 49 49 49 50 51 51 50 50 49 49 51 53 52 53 55 55 52 53 53 52 52 51 53 55 57 58 60 60 60 60 59 59 59 58 58 57 57 57 57 58 59 60 60 59 59 58 57 57 57 57 58 60 62 64 65 65 64 64 64 65 67 69 69 70 71 71 72 73 75 77 78 79 80 81 81 82 82 82 82
51 51 51 51 50 50 50 49 50 49 48 48 48 47 48 49 50 51 53 53 54 57 56 52 52 53 55 55 55 56 58 59 59 59 58 58 58 58 58 58 58 59 58 58 58 59 60 60 60 60 60 60 60 60 60 59 60 61 62 64 66 67 66 66 66 67 70 73 74 73 73 73 72 72 72 73 75 77 78 79 79 79 80 81 82 83
52 52 53 53 53 52 51 51 50 49 47 46 47 47 48 50 51 51 53 55 56 58 59 57 56 56 57 59 60 60 60 59 58 57 56 56 57 57 57 58 58 59 59 60 60 60 60 60 60 61 61 61 61 61 61 62 63 63 64 65 66 66 68 70 72 73 75 77 77 77 76 76 75 74 73 73 74 76 77 78 79 80 80 80 81 82
52 52 54 55 54 53 53 52 50 48 48 48 49 50 51 52 53 54 56 58 59 61 62 61 61 60 60 62 64 64 62 61 59 57 56 56 56 56 57 57 58 59 60 61 61 61 62 62 61 61 61 61 61 62 62 63 64 65 66 67 69 71 73 75 77 78 79 79 79 79 79 78 77 76 76 76 77 78 79 80 80 81 82 83 83 84
51 52 53 54 54 53 52 50 48 48 50 51 52 53 54 55 56 58 59 59 60 61 62 63 65 66 65 66 67 65 63 62 60 59 57 56 56 56 57 58 59 60 61 62 62 63 63 63 63 63 63 64 65 66 66 67 67 68 69 71 73 74 75 77 78 79 80 81 81 81 80 79 79 78 79 80 82 83 84 84 85 85 86 86 86 86
48 48 49 50 51 51 49 49 49 51 54 55 56 57 57 58 58 59 61 61 60 61 62 62 65 68 69 67 66 64 62 61 59 58 57 57 57 57 58 58 59 60 61 62 62 63 63 65 66 66 67 68 69 69 69 70 70 71 72 73 75 76 77 79 80 81 82 83 83 83 83 83 83 83 84 85 86 86 87 87 88 88 88 88 88 88
47 47 49 50 50 49 51 55 57 58 60 61 62 61 60 59 59 59 61 61 60 61 62 62 65 68 68 65 64 64 62 60 58 57 56 57 57 58 58 59 60 61 61 62 63 64 65 67 68 69 70 71 71 72 73 74 75 76 77 78 79 80 80 81 82 83 84 85 86 87 87 88 88 88 88 87 88 88 88 88 89 89 90 90 90 90
49 51 53 54 54 54 57 61 63 64 65 65 64 63 61 60 59 59 60 62 62 64 64 62 65 69 68 64 63 62 61 59 57 56 56 56 56 57 58 59 60 61 61 62 63 65 67 69 70 71 71 73 74 75 77 78 79 80 81 82 82 83 83 84 85 85 86 87 88 88 89 89 90 90 90 90 90 90 90 90 91 91 91 92 92 92
54 56 57 58 58 58 59 62 65 65 65 65 65 64 63 62 62 63 65 65 66 68 66 64 67 69 66 64 62 61 60 58 57 57 56 56 56 56 58 59 60 62 63 64 66 68 69 71 71 73 74 76 77 78 79 80 81 82 83 84 85 85 86 86 86 87 88 88 89 89 90 91 92 92 93 93 93 93 93 93 93 94 94 94 95 95
56 58 58 58 60 61 60 61 63 64 64 64 65 65 64 64 65 66 67 67 67 68 67 67 70 68 64 63 63 62 59 57 56 56 56 57 58 60 61 63 64 65 67 68 69 70 71 72 74 75 76 77 78 79 80 80 81 82 83 84 85 86 87 88 88 89 90 91 91 92 92 93 94 95 95 96 96 97 97 97 97 97 97 98 98 99
58 59 59 60 62 63 62 62 63 64 64 65 65 64 64 65 66 66 68 68 67 66 68 69 68 66 63 63 63 60 57 55 56 56 57 60 62 63 64 66 67 68 69 70 71 72 73 74 75 76 77 78 79 80 80 81 82 83 84 86 87 88 88 90 91 92 93 93 93 94 94 95 95 96 97 97 98 99 99 100 100 100 100 100 101 101
60 61 62 63 65 64 64 64 64 64 64 65 65 64 64 65 67 68 68 68 66 67 69 68 65 63 62 60 59 57 55 55 57 58 60 62 63 64 65 66 67 68 69 70 71 72 73 74 75 76 77 78 79 80 81 83 84 85 86 87 88 89 90 91 92 93 94 94 94 95 95 96 96 97 97 98 98 98 98 99 99 99 98 98 98 99
63 65 66 67 67 65 65 65 65 65 65 65 65 64 63 64 67 69 69 68 68 69 69 66 62 62 61 59 57 57 57 58 60 61 62 62 63 64 65 65 66 67 68 69 71 71 73 74 75 76 77 78 80 81 82 84 85 86 87 88 89 90 91 91 92 93 94 94 95 95 95 96 96 95 95 95 94 94 93 93 92 92 91 91 91 91
68 69 68 68 68 66 65 65 65 65 66 66 65 64 63 65 67 68 68 67 67 67 66 63 62 63 63 60 58 58 59 61 62 61 61 61 62 62 63 64 65 66 68 70 71 72 73 74 76 77 78 80 81 82 83 84 86 87 87 88 89 90 91 92 92 93 93 93 94 94 93 93 92 91 90 89 88 87 86 85 84 83 83 82 82 82
68 69 69 68 68 67 66 65 65 66 67 67 65 64 64 65 66 65 66 65 64 64 64 62 64 65 61 58 58 59 60 61 61 61 61 61 62 63 63 65 66 68 70 71 72 74 75 76 78 79 80 81 82 83 84 85 86 87 87 88 89 90 90 90 90 90 90 89 88 87 86 84 83 81 80 79 78 77 76 76 75 74 74 73 73 74
67 68 68 67 67 67 65 64 65 66 67 68 66 64 63 64 64 64 64 63 63 64 65 65 66 64 59 57 59 60 60 60 60 61 63 63 64 64 65 67 69 70 72 73 74 75 77 78 79 80 81 82 83 84 84 85 85 86 86 86 86 86 85 85 83 82 81 79 78 77 75 74 73 72 71 70 69 68 68 68 67 68 68 68 68 69
67 67 66 65 66 66 64 64 64 65 69 70 67 62 60 60 61 62 63 62 62 64 65 65 65 63 61 61 62 61 60 61 63 64 64 65 65 66 67 69 71 72 73 74 76 77 78 79 80 81 82 82 83 83 83 83 82 82 82 82 81 80 79 77 75 73 72 71 70 69 69 68 67 66 65 65 64 64 64 64 65 66 66 67 68 68
66 65 64 64 65 66 65 64 64 67 71 69 63 57 57 59 60 62 62 61 61 63 63 64 64 63 64 64 63 63 63 64 65 65 65 66 67 68 69 70 72 73 74 76 77 78 79 80 80 81 81 81 81 81 80 80 79 78 78 77 76 74 72 69 68 67 67 66 66 66 65 65 64 63 63 63 63 64 65 66 67 68 69 69 70 71
65 64 64 64 65 66 65 64 66 70 69 63 58 57 59 59 59 61 61 60 60 62 63 64 65 64 64 64 63 64 65 65 65 66 67 68 68 69 70 72 73 75 76 77 78 78 79 80 80 81 81 80 80 79 78 77 76 75 74 72 70 68 66 65 65 64 64 64 63 63 62 62 62 62 62 63 65 66 67 69 70 70 71 72 72 72
63 63 62 63 64 65 65 65 68 69 65 59 59 60 58 57 58 61 62 61 59 61 64 64 63 63 63 64 65 65 66 66 67 67 68 69 70 70 72 74 76 77 78 78 78 79 79 80 80 79 79 78 77 76 74 73 71 70 68 66 65 64 63 63 63 62 62 62 61 61 61 61 62 63 65 66 67 68 69 70 71 71 72 72 71 72
61 62 61 61 62 63 64 65 66 67 65 60 58 57 55 56 59 61 63 61 58 60 64 64 63 64 65 66 66 67 67 68 67 67 69 71 72 74 75 77 78 78 78 79 78 78 78 78 77 76 75 73 71 70 68 66 65 64 63 62 61 61 61 61 61 61 61 60 60 61 62 63 64 66 67 68 69 70 70 70 70 70 70 70 70 70
60 60 59 60 61 61 63 65 65 67 66 59 54 54 55 57 60 62 64 62 57 58 63 64 64 65 66 66 67 67 68 68 67 68 71 74 76 76 77 78 78 79 78 78 77 76 75 73 71 69 67 65 64 62 61 60 60 60 60 59 59 60 60 60 59 59 60 60 61 62 64 65 67 68 69 69 69 69 69 68 68 68 69 69 68 69
58 57 57 59 61 61 62 64 65 66 64 58 55 55 56 58 60 62 65 63 56 56 62 64 64 65 66 66 67 67 68 70 69 69 73 76 78 78 78 78 78 78 77 76 74 72 69 66 64 61 60 58 57 57 57 57 57 58 58 58 58 58 58 58 58 59 60 61 63 64 66 67 68 69 69 69 69 68 68 67 67 67 68 68 69 69
57 57 57 59 60 60 61 63 64 64 62 58 57 57 57 59 60 62 65 63 57 57 62 63 64 65 66 67 68 68 69 70 71 72 75 77 78 78 78 77 76 75 73 70 68 64 61 58 56 55 54 54 53 54 54 55 56 56 57 57 57 57 57 57 58 59 61 63 64 65 67 68 69 69 69 69 68 67 67 67 67 67 68 68 69 69
57 57 58 58 59 59 61 63 64 63 60 58 58 58 59 61 63 63 62 60 59 61 63 63 65 67 67 69 70 70 70 71 72 74 75 76 77 77 76 75 73 70 66 62 59 56 53 52 51 51 51 51 52 52 53 54 54 55 55 56 56 57 57 58 60 61 62 64 65 66 67 68 69 69 69 68 67 66 66 67 67 67 68 68 68 68
56 57 58 58 59 60 60 62 65 64 59 56 58 60 61 63 63 62 61 61 63 65 65 66 67 68 68 69 70 71 71 72 74 75 75 76 76 75 74 72 68 64 60 56 52 50 48 49 49 50 50 51 51 52 52 53 53 54 55 56 56 57 58 59 61 62 63 64 65 67 68 68 69 68 67 67 66 66 66 67 67 68 68 67 67 66
55 57 58 58 59 60 60 62 65 65 59 57 61 64 64 64 64 62 63 66 67 67 66 67 68 68 69 70 71 72 73 74 74 75 75 75 74 72 70 67 63 59 54 50 47 46 47 48 49 50 50 51 51 52 52 53 53 54 55 56 57 58 59 60 61 62 63 65 66 67 68 67 67 66 66 66 66 66 66 66 67 67 66 66 65 65
56 56 57 57 58 60 62 64 65 64 62 63 65 65 64 64 64 64 66 67 67 67 67 68 69 69 71 72 73 74 74 74 74 73 73 72 70 67 65 62 58 54 50 47 46 46 46 47 48 49 50 51 52 52 53 53 54 55 56 57 58 58 59 60 62 63 64 65 66 66 66 66 65 65 65 65 66 66 66 66 66 65 65 65 65 63
56 54 55 57 61 63 64 66 66 64 64 66 66 65 64 64 64 66 67 67 67 68 69 70 71 71 72 73 74 74 73 73 72 70 69 67 65 62 60 57 53 50 47 46 47 47 48 48 49 50 51 51 52 52 53 54 55 56 57 58 58 59 60 61 62 63 64 65 65 65 64 64 63 64 64 65 65 65 65 65 64 63 63 64 63 62
54 55 57 60 63 65 66 67 66 65 65 66 65 64 64 65 64 65 67 68 69 69 70 72 73 72 72 73 72 72 71 70 68 67 65 63 60 57 54 52 49 48 47 47 49 49 50 50 51 52 52 52 53 53 54 55 55 56 57 58 59 59 60 61 62 63 63 63 63 63 63 63 63 64 64 64 65 64 64 64 63 62 62 62 61 59
54 56 60 63 64 67 68 66 65 65 65 65 64 64 64 64 64 65 67 68 68 69 70 71 71 70 70 70 69 69 68 66 64 62 60 58 55 52 50 49 48 47 47 48 49 50 51 52 53 53 54 54 54 55 55 56 56 57 58 59 59 60 61 61 62 62 62 62 62 62 63 63 63 63 63 63 63 63 63 63 62 61 61 61 59 56
56 58 62 65 66 68 67 65 64 64 65 64 64 63 62 62 63 65 67 67 67 67 68 68 67 67 67 66 66 65 63 61 59 57 55 53 51 49 48 48 48 47 47 48 49 50 52 53 54 54 54 55 55 55 56 56 57 58 59 59 60 60 61 61 62 61 61 62 62 62 63 63 63 62 62 61 61 62 62 61 61 60 60 59 57 50
58 61 63 64 66 67 66 63 61 62 63 62 60 60 60 61 63 64 65 65 65 65 65 64 63 63 63 62 61 60 58 56 54 52 51 50 48 47 47 47 48 48 48 48 50 51 52 53 53 54 54 55 55 55 56 57 58 59 59 60 60 60 61 61 61 61 61 62 62 62 62 62 62 61 61 60 60 61 60 60 60 59 58 56 52 45
59 60 61 64 67 68 65 61 57 58 59 57 56 57 60 62 63 64 64 63 62 61 60 60 60 59 59 58 56 55 53 51 49 49 49 48 46 46 46 46 47 48 48 49 50 51 52 53 53 54 55 55 55 55 56 57 58 59 59 60 60 60 60 61 61 61 61 62 62 62 61 61 60 60 60 60 59 59 58 58 58 59 56 51 45 41
58 59 62 67 69 66 62 57 54 55 57 56 56 59 61 61 61 62 61 60 59 58 57 57 57 55 54 53 51 50 49 47 47 48 48 47 47 46 47 48 48 49 49 50 51 52 53 53 54 54 55 55 55 55 56 57 58 59 59 59 60 60 60 61 61 61 61 61 60 60 60 59 59 58 58 58 58 58 56 55 55 56 53 47 40 39
Wind_Direction
279 278 279 283 284 280 278 280 282 284 286 288 290 290 291 292 294 294 291 290 291 292 295 297 295 295 296 295 294 294 296 297 296 294 291 290 289 289 289 290 290 289 288 286 284 283 282 282 281 281 281 282 284 285 286 287 287 287 285 282 278 275 271 269 266 263 260 259 257 254 251 251 251 253 254 256 258 260 263 265 266 267 266 265 265 267
279 278 280 283 280 278 279 280 281 283 284 286 288 288 290 293 294 292 290 290 290 292 294 293 292 292 293 293 294 297 298 298 297 296 294 293 293 291 288 286 284 284 286 286 284 283 282 282 282 282 283 284 286 288 288 288 288 289 288 285 281 278 274 271 268 267 265 264 262 260 256 253 251 251 251 252 254 256 258 260 262 263 264 264 265 266
279 279 282 280 277 278 279 279 280 281 283 284 285 286 289 291 290 289 289 289 290 291 292 291 291 292 293 295 298 299 299 298 296 295 294 295 294 292 288 285 283 283 284 285 284 283 282 282 282 282 283 284 285 287 289 290 289 288 288 286 282 278 275 272 269 267 265 265 264 264 262 259 256 254 254 254 254 255 256 257 258 260 262 263 264 264
278 280 280 278 277 277 278 278 279 280 281 281 282 285 288 287 286 288 289 289 290 291 291 291 291 293 296 298 299 299 297 295 294 293 294 295 293 291 288 287 285 285 285 284 284 284 283 283 283 283 283 283 283 284 286 288 289 289 288 287 284 279 274 270 268 266 265 264 263 263 263 261 260 260 259 259 260 259 259 258 258 258 259 260 262 263
278 280 279 277 276 276 276 276 278 280 280 280 282 284 285 284 286 289 289 289 291 291 292 292 291 293 297 297 296 296 294 291 290 291 293 293 291 290 290 290 289 288 287 286 285 284 284 283 283 283 282 282 282 283 284 285 286 287 287 285 283 279 273 268 266 265 265 265 264 262 261 261 261 261 262 263 263 263 263 263 262 261 260 259 259 260
279 279 277 275 275 275 276 277 278 278 278 279 282 283 283 285 287 289 289 289 290 290 290 290 290 292 296 296 295 293 290 287 287 290 291 289 289 289 290 290 290 289 289 288 288 287 286 285 285 284 283 282 282 282 282 282 283 283 284 283 281 277 271 266 263 263 263 264 263 263 262 262 262 263 264 265 265 264 264 264 265 265 264 262 261 260
280 276 273 273 274 275 277 279 277 276 277 280 281 281 283 286 286 286 287 287 287 287 287 287 288 292 294 294 293 290 288 287 288 289 288 287 288 288 288 288 289 291 292 292 292 292 292 290 288 286 284 283 282 281 281 280 280 280 280 279 278 275 270 266 262 261 262 263 263 263 264 264 265 265 265 266 267 266 265 265 266 266 265 265 264 262
278 273 271 272 272 274 275 275 274 276 280 281 281 282 284 285 284 284 284 283 283 284 284 285 289 292 291 291 290 288 288 290 290 288 287 286 287 286 287 289 291 292 293 294 295 295 295 294 291 288 286 284 282 281 279 278 277 276 276 275 275 273 270 267 263 261 261 262 263 264 265 266 267 267 267 267 268 268 268 268 268 267 267 266 265 264
276 274 271 270 271 272 273 273 276 279 282 283 283 284 284 282 282 282 281 281 281 282 283 286 290 290 289 290 289 288 290 290 288 286 286 286 285 287 289 292 293 295 296 296 296 296 295 293 290 288 285 283 282 280 278 277 275 275 274 273 273 271 269 267 265 263 262 262 262 263 264 265 266 268 269 269 269 269 269 269 269 269 268 267 266 265
276 275 273 272 273 274 274 276 279 281 282 283 283 282 281 280 280 280 280 281 280 281 285 289 288 285 286 288 288 288 290 288 287 287 288 289 291 293 295 296 297 298 298 298 297 296 295 292 289 286 284 282 281 279 277 276 274 273 272 272 271 271 269 267 265 264 263 263 263 263 264 264 265 266 267 268 269 270 270 270 270 270 269 268 267 266
277 276 276 277 277 277 279 281 281 281 281 281 280 279 279 279 280 279 280 281 280 283 289 289 284 281 284 287 287 286 285 285 286 288 290 294 297 299 300 300 299 299 298 297 295 294 293 291 288 286 285 283 281 278 275 273 272 271 271 270 269 269 270 269 267 266 265 264 264 265 265 265 266 266 267 268 269 269 270 270 271 271 270 269 267 266
277 277 278 278 279 280 282 282 281 281 281 280 278 278 278 279 279 279 280 281 281 286 289 284 280 279 282 285 284 283 283 284 285 287 290 294 296 298 299 298 297 296 294 293 292 290 289 287 286 284 283 282 280 276 272 270 270 269 269 270 271 270 270 270 269 268 267 266 266 266 266 267 267 267 268 269 270 270 271 272 272 272 273 272 270 267
277 277 278 278 279 281 282 281 282 281 280 278 278 279 279 279 279 279 280 281 281 285 285 281 280 279 280 283 282 281 282 283 283 285 288 291 293 295 295 294 292 291 289 288 288 287 286 285 283 282 281 279 277 274 270 268 269 270 270 270 271 272 271 270 269 268 267 266 266 266 267 268 269 269 269 270 271 272 273 273 274 274 275 275 274 271
277 277 277 278 279 280 280 281 281 279 278 277 278 278 278 278 278 279 282 281 281 282 281 279 278 277 280 282 281 280 280 280 282 284 287 289 290 291 290 289 288 287 286 285 284 284 284 283 282 281 279 277 273 271 268 267 267 270 271 271 270 271 271 270 268 266 264 263 263 264 265 266 267 268 270 270 271 272 274 275 276 276 277 277 276 275
278 278 278 278 279 280 281 280 279 278 277 277 277 277 277 278 278 279 280 279 279 279 278 277 277 277 280 281 280 280 279 280 282 285 287 288 288 287 287 286 286 285 284 283 282 282 282 281 281 280 278 276 273 271 270 269 267 267 270 271 271 271 271 269 267 264 262 262 262 262 263 264 266 267 268 268 269 270 271 273 274 276 277 277 277 277
280 280 280 280 281 281 281 279 278 277 277 276 277 277 278 279 278 276 276 276 278 277 276 276 276 278 280 279 279 279 279 281 284 286 287 287 286 286 285 284 283 282 282 281 280 280 280 279 279 278 278 277 275 273 272 272 270 269 269 270 272 273 272 271 269 266 264 263 264 264 265 266 267 268 268 268 268 268 268 269 270 271 273 274 275 276
280 280 281 281 281 281 280 279 277 276 275 275 277 277 278 277 274 273 274 276 276 274 274 275 275 276 277 277 277 277 279 283 284 285 285 284 284 284 283 282 281 280 279 278 278 277 277 277 278 278 278 278 277 276 275 274 273 273 272 272 273 274 274 272 271 270 268 269 269 270 270 269 270 269 269 269 269 268 268 267 267 268 268 269 271 272
280 281 282 283 282 282 281 281 278 276 276 276 277 277 275 274 273 273 274 275 274 272 273 273 272 273 275 276 278 280 281 284 284 284 283 282 281 280 279 279 278 277 276 276 275 275 275 276 276 277 277 277 276 276 276 275 274 274 273 273 274 275 274 273 272 271 271 273 274 275 275 274 274 273 271 270 270 270 270 270 269 269 269 269 269 270
282 283 284 285 286 286 286 284 281 280 279 278 276 273 271 271 272 273 273 273 273 272 273 274 274 275 277 281 284 284 284 284 284 282 280 279 278 277 276 276 275 275 275 274 274 275 275 276 276 276 276 276 276 276 275 275 274 274 273 272 272 272 273 273 274 274 274 276 277 278 278 278 277 277 275 274 272 272 272 272 272 272 271 271 270 270
284 284 285 286 288 287 285 284 283 282 279 275 273 271 271 271 272 272 272 273 274 275 277 279 280 280 281 285 287 286 285 286 284 282 280 278 277 275 274 273 272 272 272 273 273 274 275 276 276 276 275 275 275 275 274 273 273 273 272 272 272 273 273 275 276 277 277 278 279 279 279 278 278 277 276 275 275 274 274 274 273 273 273 273 272 271
285 285 286 287 287 285 284 283 281 277 273 271 271 272 273 274 275 274 274 276 278 279 281 283 284 285 286 287 286 286 287 286 285 283 282 279 276 274 272 271 271 271 271 272 273 273 274 274 274 274 274 274 274 274 274 273 273 273 273 273 274 275 276 276 277 277 278 279 279 280 279 279 278 277 277 276 276 276 276 276 276 276 275 275 275 274
285 283 283 284 285 285 282 277 274 271 270 272 273 274 277 278 279 278 279 281 283 283 283 283 283 286 289 288 287 287 286 285 283 283 281 278 275 273 272 271 271 271 271 271 272 272 272 273 273 273 274 274 274 275 274 274 274 275 275 276 276 277 277 277 277 278 278 279 279 280 280 279 279 279 278 278 277 277 277 277 277 277 277 277 276 276
280 277 276 278 279 278 274 272 271 271 272 275 277 280 282 282 282 282 282 284 284 282 282 281 280 285 288 287 287 287 286 283 282 281 278 275 274 273 272 271 271 270 269 270 271 271 272 272 273 273 274 274 275 275 276 276 276 277 278 278 278 279 279 279 279 279 279 279 279 280 280 280 280 280 279 279 278 278 277 277 277 277 276 276 276 275
275 273 273 275 274 271 271 273 275 276 277 279 282 284 284 283 284 283 283 285 283 281 282 279 279 285 288 286 286 286 284 282 280 278 275 273 272 271 270 270 269 268 269 270 271 272 272 273 273 274 274 275 276 276 277 278 278 279 280 280 280 280 280 280 280 279 279 279 279 279 280 280 280 280 280 280 279 279 278 278 277 277 276 276 276 275
272 272 272 273 272 271 272 274 276 279 280 281 282 282 282 283 284 284 284 284 282 282 282 280 281 286 287 286 285 283 280 279 278 276 274 273 271 270 269 269 268 269 270 271 273 274 273 274 274 275 275 276 277 278 279 279 280 280 281 281 281 281 281 281 281 281 281 280 280 280 280 281 281 281 281 281 281 280 280 279 279 278 278 277 277 277
269 269 270 272 273 274 275 276 277 278 279 279 279 281 282 282 282 283 283 281 279 281 281 281 284 286 284 284 283 280 279 278 277 275 273 272 271 271 271 271 271 272 273 275 276 276 276 276 277 278 278 279 280 281 281 282 282 283 283 283 283 283 283 283 283 283 283 283 283 283 283 282 282 282 282 282 282 282 282 281 281 280 280 279 279 279
268 268 269 271 275 277 278 278 276 276 276 277 277 278 280 281 281 281 279 278 278 279 280 282 283 282 280 280 280 279 279 277 276 275 273 273 273 273 274 274 275 276 277 278 278 279 279 280 280 281 281 282 282 283 283 284 284 284 284 284 284 284 284 284 284 284 284 284 284 284 283 283 283 283 283 283 283 283 283 283 283 282 282 281 281 280
268 268 270 273 276 278 279 278 277 276 276 276 276 277 278 279 279 278 277 277 279 278 279 282 282 278 278 280 279 278 277 275 275 274 274 274 275 276 277 278 279 279 280 280 280 281 281 282 282 283 283 284 284 284 284 284 284 284 284 284 284 284 284 284 284 284 284 284 284 284 284 284 284 285 285 285 285 284 284 284 284 283 283 282 282 281
269 270 273 275 276 278 278 277 277 277 277 276 276 277 278 277 277 276 276 279 280 279 279 281 279 277 278 279 277 277 277 276 275 275 276 277 278 279 279 279 280 281 281 281 282 282 283 283 284 284 284 285 285 285 284 284 284 284 284 284 284 284 284 284 284 285 285 285 286 286 286 286 286 286 286 286 286 285 285 285 284 284 284 283 283 282
271 273 274 275 276 278 278 277 277 277 276 276 276 277 277 276 274 275 277 279 279 278 280 280 278 276 277 279 278 278 277 277 277 278 279 280 280 280 280 281 281 282 282 283 283 284 284 285 285 285 285 285 284 284 284 284 284 284 284 285 285 285 285 285 286 286 287 287 287 287 287 287 287 287 286 286 286 286 286 286 286 286 285 285 285 284
273 274 274 275 276 277 277 276 276 275 275 274 275 276 276 275 274 276 277 277 277 277 279 278 276 276 278 279 279 277 276 277 279 280 281 280 280 280 281 282 283 283 284 284 284 285 285 285 285 285 285 285 285 285 285 286 286 286 286 286 286 286 287 287 287 288 288 288 288 288 288 288 287 287 287 287 287 287 287 287 287 287 287 287 286 286
274 274 275 276 276 276 276 274 274 274 273 272 275 278 277 276 276 276 275 275 275 276 276 276 277 279 280 278 277 277 278 279 280 280 279 280 280 281 282 283 283 284 284 285 285 286 286 287 287 287 287 287 287 287 287 287 287 287 287 287 287 287 287 287 287 287 287 287 287 287 287 287 287 287 287 288 288 288 288 288 288 288 287 287 286 286
275 275 276 276 275 275 275 273 273 272 269 272 279 281 278 275 275 274 273 274 275 276 276 277 278 280 280 278 278 279 280 280 279 279 280 281 282 283 283 283 284 285 286 287 287 288 288 288 288 288 289 289 288 288 288 288 288 287 287 287 287 287 287 286 286 285 285 285 285 285 285 286 286 287 287 288 288 288 288 288 288 288 287 287 286 286
275 276 276 275 274 274 274 273 271 268 269 277 283 280 274 273 273 272 273 274 274 275 276 277 278 279 279 279 280 280 280 280 280 281 281 282 283 284 284 285 286 287 288 289 289 289 289 289 289 289 289 288 288 288 288 288 288 287 287 287 286 286 285 285 284 284 284 284 285 286 286 287 287 288 288 289 289 290 290 290 290 290 289 289 288 288
275 275 274 273 273 273 272 271 269 268 274 280 280 274 272 273 273 274 274 273 273 275 276 277 278 279 280 280 280 280 280 280 281 282 283 284 285 286 287 288 288 289 289 289 289 289 289 289 289 289 289 289 289 289 289 288 288 287 287 286 286 285 285 285 285 285 286 287 287 288 288 289 289 290 290 291 291 291 291 291 291 291 290 290 290 289
273 272 272 271 271 271 271 271 270 272 276 276 275 275 276 276 275 274 273 272 273 276 277 278 279 280 280 280 280 280 280 281 282 283 285 286 287 288 288 289 290 290 290 290 290 290 290 289 289 290 290 290 290 290 289 289 288 287 287 286 286 286 286 286 287 288 289 289 289 290 290 290 291 291 292 292 292 292 292 292 292 291 291 291 290 290
270 270 270 270 270 271 272 272 273 274 274 274 277 278 278 276 275 274 274 274 275 276 278 279 280 280 279 280 280 281 281 282 283 285 287 288 288 289 290 291 292 292 292 291 291 291 290 291 291 291 291 290 290 289 289 288 288 287 287 286 287 287 287 288 289 290 290 290 290 290 291 291 292 292 292 293 293 293 292 292 292 291 291 291 291 291
270 270 271 271 270 271 272 273 274 274 275 278 279 278 277 277 277 277 277 276 277 279 279 279 279 279 279 280 281 282 282 283 284 286 288 289 290 291 292 292 292 292 292 292 291 292 292 292 292 291 291 290 289 288 287 287 286 286 286 286 287 287 288 289 289 290 290 290 290 291 291 292 292 293 293 293 293 293 292 292 292 292 292 291 291 291
270 270 270 269 270 272 274 275 275 276 278 281 280 278 278 278 278 278 278 279 281 281 279 278 279 280 281 281 282 282 284 285 286 288 289 290 291 292 292 292 292 292 292 292 292 293 293 292 291 290 289 288 287 286 286 285 285 285 285 286 286 287 288 288 288 288 289 289 290 290 291 292 293 293 294 294 293 293 292 292 292 292 292 292 292 292
269 269 269 270 272 274 275 275 276 277 280 282 281 280 279 278 277 277 280 283 284 280 278 280 281 282 282 283 283 284 285 287 288 289 290 291 292 292 292 292 292 292 292 293 293 293 292 291 290 288 287 286 285 285 284 284 284 284 285 285 285 286 286 287 287 287 288 289 290 290 291 292 293 294 294 294 293 293 293 293 293 293 293 293 294 294
268 269 270 271 272 274 274 275 277 278 280 282 282 281 280 279 278 279 283 285 284 280 280 282 282 282 283 284 285 286 287 289 290 291 291 291 291 291 291 291 292 293 293 294 293 292 291 289 287 285 285 284 283 283 282 283 283 283 284 284 285 285 286 286 287 287 288 289 290 291 292 293 294 294 294 294 293 293 293 294 294 294 294 294 295 295
268 269 270 271 273 274 275 276 277 277 280 282 282 281 280 280 282 284 285 285 283 283 283 283 282 283 284 285 286 288 289 290 291 291 291 290 290 291 291 292 293 294 294 293 292 290 287 285 284 284 283 283 283 283 283 284 284 284 284 284 285 285 286 286 287 288 289 290 291 292 293 294 294 294 294 294 294 294 294 295 295 295 296 296 296 296
268 268 270 273 275 275 275 275 277 279 282 281 280 281 282 283 285 286 286 284 284 284 284 284 285 286 286 287 288 289 289 290 290 291 291 290 291 291 292 293 294 294 294 292 289 286 284 283 283 284 284 284 285 285 285 285 285 285 285 285 285 286 286 287 288 289 290 291 292 293 294 294 295 294 294 294 295 295 295 295 296 296 297 297 297 297
268 270 273 275 275 275 275 275 277 281 282 281 281 283 285 285 286 286 285 285 286 286 286 286 287 287 288 289 289 290 290 291 291 291 291 291 292 293 294 294 295 294 294 291 288 285 284 284 284 284 284 285 285 285 285 286 285 286 285 286 286 286 287 288 289 290 291 292 293 294 294 295 295 295 295 295 295 295 295 296 296 297 298 298 298 297
271 273 274 274 273 274 275 277 279 281 282 282 283 285 285 286 286 286 286 286 287 287 287 287 288 289 289 290 290 291 291 291 291 291 291 291 293 293 294 294 294 294 293 290 288 287 286 285 285 284 284 285 285 285 286 286 286 286 286 286 287 288 288 289 290 291 293 293 294 295 295 295 295 295 295 295 295 296 296 296 297 298 298 298 297 298
273 274 274 273 274 275 276 278 280 282 283 283 284 285 285 286 287 287 288 287 287 287 288 289 290 291 291 291 291 291 291 291 291 291 291 292 293 293 293 293 292 292 291 289 287 287 286 286 286 285 286 286 287 287 287 287 287 287 287 288 289 289 290 291 292 293 294 294 295 295 295 296 296 296 296 296 296 296 296 297 298 298 298 297 297 298
273 275 275 275 276 276 278 280 283 284 284 284 284 284 285 286 287 287 287 286 287 288 289 290 291 290 290 290 290 289 289 290 290 291 292 293 293 293 292 291 290 289 287 286 285 285 286 286 286 286 287 287 288 288 289 289 289 288 289 289 290 291 292 293 294 294 295 295 296 296 296 296 296 295 295 295 295 296 296 297 298 298 297 296 297 298
274 274 275 276 278 279 280 282 284 284 284 284 284 284 286 287 287 286 286 286 288 288 289 289 288 288 288 288 288 288 289 290 291 292 292 292 292 291 290 289 288 287 285 284 283 284 284 285 286 287 287 288 289 289 290 290 290 290 290 291 292 293 294 295 295 296 296 296 296 296 296 296 295 295 295 294 295 295 296 297 298 297 297 297 298 296
274 274 276 278 279 280 281 283 284 283 282 281 282 284 286 286 286 286 286 286 287 287 287 286 286 285 286 286 287 288 289 291 291 291 290 290 290 290 289 288 288 287 286 285 284 285 285 286 286 287 288 289 290 290 290 290 290 291 291 293 294 294 295 295 296 296 297 297 297 296 296 295 294 294 294 294 294 295 296 297 297 297 297 298 297 294
275 277 279 280 279 280 282 283 283 280 279 280 282 284 285 285 285 285 285 286 286 286 286 285 284 284 285 286 287 288 290 291 290 289 289 290 290 290 289 288 287 286 286 286 286 286 286 287 287 288 289 290 290 290 291 290 291 291 293 294 295 295 296 296 296 297 296 296 296 295 294 294 293 293 293 293 294 294 296 297 298 297 298 296 293 292
277 278 279 279 280 281 282 282 280 279 279 282 283 283 283 284 284 284 285 285 285 285 285 284 284 285 286 287 288 289 289 290 289 289 290 292 292 291 290 288 288 288 287 287 287 287 288 288 289 290 290 291 291 291 291 291 291 292 294 294 295 296 296 297 297 296 296 295 294 293 293 292 292 292 293 293 294 295 296 296 297 298 298 295 291 293
Height
5824 5822 5823 5827 5827 5825 5823 5822 5823 5822 5821 5821 5820 5819 5818 5818 5820 5821 5819 5818 5816 5814 5815 5816 5814 5813 5814 5813 5812 5811 5811 5811 5811 5810 5810 5810 5810 5809 5808 5807 5806 5805 5804 5805 5804 5803 5803 5802 5802 5801 5801 5800 5800 5800 5799 5799 5798 5798 5797 5797 5796 5795 5794 5794 5794 5793 5792 5791 5790 5789 5787 5787 5786 5786 5786 5787 5787 5788 5788 5788 5788 5788 5788 5788 5788 5787
5818 5817 5820 5823 5821 5819 5818 5818 5818 5818 5817 5817 5815 5814 5814 5814 5815 5815 5814 5813 5812 5810 5811 5812 5810 5810 5811 5810 5809 5808 5807 5806 5806 5805 5804 5805 5805 5805 5804 5803 5803 5801 5801 5801 5801 5800 5799 5799 5798 5797 5797 5796 5796 5796 5796 5795 5794 5794 5793 5793 5792 5792 5791 5791 5790 5789 5788 5788 5787 5786 5785 5784 5783 5782 5781 5781 5781 5782 5782 5782 5782 5782 5782 5782 5782 5782
5812 5813 5817 5817 5814 5814 5813 5813 5813 5813 5813 5812 5811 5810 5811 5812 5810 5809 5809 5809 5808 5807 5807 5807 5806 5807 5808 5807 5806 5804 5802 5802 5801 5800 5799 5800 5801 5800 5800 5799 5799 5798 5798 5797 5797 5796 5796 5795 5794 5793 5793 5792 5792 5791 5791 5791 5790 5790 5789 5789 5788 5788 5787 5787 5786 5785 5784 5784 5783 5782 5782 5781 5780 5778 5778 5777 5776 5776 5776 5776 5776 5776 5775 5775 5775 5775
5807 5810 5813 5811 5809 5809 5808 5808 5808 5808 5808 5807 5806 5807 5807 5808 5806 5805 5805 5804 5803 5803 5803 5803 5802 5803 5804 5803 5802 5800 5798 5797 5796 5795 5795 5796 5796 5795 5795 5795 5794 5794 5794 5793 5792 5792 5791 5791 5790 5790 5789 5788 5788 5787 5787 5786 5785 5785 5784 5784 5784 5783 5783 5783 5782 5781 5780 5780 5779 5778 5777 5776 5775 5775 5774 5773 5772 5771 5771 5770 5770 5769 5769 5769 5769 5768
5804 5807 5808 5805 5804 5804 5803 5803 5804 5804 5803 5802 5803 5803 5803 5802 5801 5801 5801 5799 5799 5798 5798 5797 5796 5798 5800 5799 5797 5796 5794 5792 5791 5791 5792 5792 5791 5791 5790 5790 5790 5789 5789 5788 5788 5787 5786 5786 5786 5785 5784 5783 5783 5782 5782 5781 5780 5780 5779 5778 5778 5778 5778 5777 5777 5776 5776 5775 5774 5773 5772 5771 5771 5770 5769 5768 5768 5767 5766 5765 5764 5764 5763 5762 5762 5761
5802 5804 5802 5800 5800 5799 5798 5799 5800 5799 5798 5798 5799 5798 5798 5798 5797 5797 5796 5795 5794 5793 5793 5792 5790 5793 5795 5794 5792 5791 5789 5787 5787 5788 5788 5787 5787 5786 5786 5785 5784 5783 5783 5782 5782 5781 5781 5781 5780 5779 5779 5778 5778 5777 5777 5776 5775 5775 5774 5773 5772 5772 5771 5771 5771 5770 5769 5769 5768 5767 5767 5766 5765 5765 5764 5763 5762 5761 5760 5760 5759 5759 5758 5757 5756 5755
5798 5798 5796 5795 5796 5795 5795 5796 5795 5793 5793 5795 5795 5794 5793 5793 5793 5792 5792 5791 5790 5789 5789 5787 5786 5788 5790 5789 5787 5785 5783 5782 5783 5784 5783 5782 5782 5782 5781 5780 5778 5777 5777 5776 5775 5775 5774 5774 5773 5773 5772 5772 5771 5771 5771 5770 5770 5769 5768 5767 5766 5766 5765 5765 5764 5763 5762 5761 5761 5760 5759 5758 5758 5758 5757 5757 5756 5755 5754 5753 5753 5752 5752 5751 5750 5749
5793 5792 5791 5791 5791 5791 5791 5791 5789 5788 5789 5790 5790 5789 5789 5789 5788 5788 5788 5787 5786 5786 5784 5782 5783 5784 5785 5784 5781 5779 5778 5778 5778 5777 5777 5777 5777 5776 5775 5774 5773 5772 5771 5770 5769 5768 5768 5766 5766 5765 5765 5764 5764 5764 5764 5763 5763 5762 5762 5761 5760 5759 5759 5758 5757 5756 5755 5754 5753 5752 5751 5750 5749 5749 5749 5749 5749 5748 5747 5746 5745 5745 5745 5744 5744 5743
5787 5786 5786 5787 5787 5787 5787 5786 5785 5785 5785 5785 5784 5784 5784 5783 5783 5783 5783 5782 5781 5781 5780 5779 5780 5778 5779 5780 5774 5771 5773 5773 5771 5771 5770 5770 5770 5769 5769 5767 5766 5765 5764 5763 5761 5761 5760 5760 5759 5758 5757 5757 5757 5756 5756 5756 5756 5755 5755 5754 5753 5753 5752 5751 5750 5749 5748 5747 5746 5745 5743 5742 5741 5740 5740 5740 5740 5740 5740 5739 5738 5737 5736 5736 5736 5735
5781 5781 5782 5782 5783 5782 5782 5781 5781 5781 5780 5780 5779 5778 5778 5777 5777 5777 5777 5776 5776 5776 5776 5777 5776 5772 5772 5774 5770 5766 5767 5766 5765 5764 5763 5762 5761 5761 5761 5760 5759 5757 5756 5755 5754 5752 5751 5751 5751 5750 5750 5749 5749 5749 5748 5748 5748 5748 5748 5747 5746 5745 5744 5744 5743 5742 5741 5739 5738 5737 5736 5735 5734 5733 5732 5731 5730 5730 5731 5731 5730 5730 5728 5728 5727 5726
5776 5776 5777 5777 5777 5777 5776 5777 5777 5776 5775 5775 5774 5772 5772 5771 5771 5770 5770 5771 5769 5769 5773 5773 5770 5766 5764 5768 5767 5763 5761 5761 5759 5758 5756 5754 5752 5752 5752 5751 5750 5749 5748 5746 5746 5745 5744 5743 5743 5742 5742 5742 5742 5741 5741 5740 5739 5739 5739 5740 5739 5738 5737 5736 5735 5734 5733 5732 5730 5729 5728 5727 5725 5724 5723 5722 5721 5721 5721 5721 5721 5721 5721 5720 5718 5718
5772 5772 5773 5773 5772 5772 5771 5771 5771 5770 5770 5769 5768 5768 5766 5765 5765 5764 5764 5765 5762 5764 5768 5765 5762 5760 5758 5761 5762 5759 5757 5756 5754 5752 5750 5748 5747 5746 5745 5744 5743 5742 5741 5740 5738 5738 5737 5736 5736 5735 5735 5735 5735 5734 5733 5732 5731 5730 5729 5730 5730 5731 5730 5729 5728 5727 5725 5724 5723 5721 5720 5718 5717 5716 5715 5713 5712 5711 5711 5711 5711 5711 5711 5711 5710 5709
5767 5768 5768 5768 5767 5767 5766 5765 5765 5764 5764 5763 5762 5762 5761 5759 5758 5757 5758 5758 5756 5758 5760 5757 5755 5752 5752 5755 5756 5754 5753 5750 5748 5747 5746 5744 5742 5741 5739 5737 5737 5735 5734 5734 5732 5730 5729 5728 5728 5727 5727 5727 5727 5726 5725 5724 5723 5722 5721 5720 5720 5721 5721 5720 5720 5718 5717 5716 5715 5713 5712 5710 5709 5708 5706 5705 5703 5702 5701 5700 5700 5700 5700 5700 5700 5700
5763 5763 5763 5763 5763 5762 5761 5760 5760 5758 5757 5757 5757 5757 5755 5753 5751 5751 5752 5751 5749 5752 5752 5750 5747 5744 5747 5750 5750 5749 5748 5745 5743 5742 5741 5739 5737 5735 5733 5731 5729 5728 5727 5726 5725 5723 5722 5721 5720 5719 5718 5718 5718 5717 5717 5716 5715 5714 5714 5713 5712 5711 5712 5711 5711 5710 5709 5708 5707 5705 5704 5703 5701 5700 5698 5697 5695 5694 5692 5691 5690 5689 5689 5689 5689 5689
5757 5758 5758 5757 5757 5756 5755 5755 5754 5752 5751 5751 5751 5750 5748 5748 5746 5744 5745 5743 5742 5744 5745 5743 5739 5737 5741 5745 5744 5743 5741 5739 5738 5736 5734 5732 5730 5728 5726 5724 5722 5720 5719 5718 5717 5716 5715 5713 5712 5711 5710 5709 5708 5708 5708 5707 5707 5706 5706 5705 5704 5703 5702 5702 5701 5701 5700 5699 5699 5697 5696 5695 5694 5693 5691 5689 5688 5686 5684 5683 5681 5680 5679 5678 5678 5678
5750 5751 5752 5751 5751 5751 5749 5748 5747 5746 5745 5744 5744 5743 5742 5743 5741 5737 5736 5736 5736 5735 5737 5737 5733 5732 5736 5738 5738 5736 5734 5733 5732 5730 5728 5725 5723 5721 5719 5717 5715 5713 5712 5711 5710 5709 5708 5706 5704 5703 5702 5701 5700 5700 5699 5699 5699 5698 5697 5696 5695 5694 5693 5692 5692 5692 5692 5691 5690 5689 5688 5686 5685 5684 5682 5681 5679 5678 5676 5675 5673 5672 5670 5669 5668 5667
5744 5744 5745 5744 5744 5744 5743 5741 5740 5740 5738 5737 5737 5737 5736 5736 5734 5730 5728 5730 5729 5725 5727 5731 5729 5727 5729 5730 5731 5730 5728 5728 5725 5723 5721 5718 5716 5714 5711 5710 5708 5707 5705 5704 5703 5702 5700 5699 5697 5695 5694 5693 5693 5692 5691 5691 5690 5689 5688 5687 5686 5684 5683 5682 5682 5682 5681 5681 5680 5679 5678 5676 5675 5674 5672 5670 5669 5667 5666 5665 5665 5663 5662 5661 5659 5658
5737 5737 5738 5737 5735 5735 5736 5734 5732 5732 5731 5730 5730 5731 5730 5727 5726 5725 5722 5722 5721 5716 5717 5724 5724 5723 5722 5722 5724 5724 5722 5721 5718 5715 5714 5712 5709 5707 5705 5704 5702 5700 5698 5697 5696 5694 5693 5691 5690 5688 5687 5686 5685 5684 5683 5682 5682 5681 5680 5678 5677 5675 5673 5673 5672 5671 5670 5669 5668 5667 5666 5665 5664 5663 5662 5660 5658 5657 5655 5654 5654 5654 5653 5652 5650 5649
5729 5729 5730 5729 5726 5726 5727 5726 5724 5723 5724 5724 5723 5723 5722 5720 5719 5719 5716 5714 5714 5709 5708 5713 5717 5718 5717 5715 5715 5714 5713 5713 5711 5708 5706 5704 5703 5701 5699 5697 5695 5693 5691 5689 5688 5686 5685 5683 5682 5680 5679 5678 5676 5675 5674 5673 5673 5672 5671 5669 5668 5666 5664 5663 5661 5660 5659 5658 5657 5656 5655 5654 5653 5652 5650 5649 5648 5647 5645 5644 5643 5642 5642 5641 5640 5639
5720 5720 5721 5722 5721 5718 5717 5717 5717 5717 5717 5717 5716 5715 5715 5715 5714 5712 5710 5708 5706 5702 5701 5702 5704 5709 5712 5710 5706 5702 5702 5703 5702 5699 5698 5697 5695 5694 5692 5690 5688 5686 5683 5682 5680 5678 5677 5675 5673 5672 5670 5669 5668 5666 5665 5664 5663 5662 5661 5660 5658 5657 5655 5653 5651 5650 5648 5646 5645 5644 5643 5642 5641 5640 5639 5638 5636 5635 5634 5633 5632 5631 5630 5629 5628 5628
5711 5710 5712 5715 5714 5711 5709 5710 5711 5711 5709 5708 5708 5708 5708 5708 5707 5704 5702 5702 5699 5695 5693 5692 5690 5696 5704 5703 5696 5692 5693 5692 5691 5691 5690 5689 5687 5685 5683 5681 5680 5678 5676 5674 5672 5670 5669 5667 5665 5663 5661 5660 5658 5657 5656 5655 5654 5653 5652 5650 5648 5647 5645 5644 5642 5640 5637 5635 5634 5632 5631 5630 5630 5629 5627 5626 5625 5623 5622 5621 5620 5618 5617 5616 5615 5615
5704 5702 5704 5706 5705 5705 5704 5703 5703 5703 5701 5701 5701 5702 5702 5700 5699 5695 5692 5695 5694 5687 5685 5682 5677 5683 5694 5693 5687 5686 5685 5682 5682 5683 5682 5680 5678 5676 5674 5673 5671 5670 5668 5666 5664 5662 5660 5658 5656 5654 5652 5650 5649 5648 5647 5646 5644 5643 5642 5640 5638 5637 5635 5633 5631 5629 5627 5625 5623 5621 5619 5618 5617 5616 5615 5614 5613 5612 5610 5608 5607 5606 5604 5603 5602 5601
5698 5696 5696 5698 5700 5701 5698 5695 5695 5694 5694 5694 5694 5696 5695 5691 5690 5687 5682 5685 5685 5679 5677 5674 5667 5672 5684 5684 5680 5678 5677 5675 5674 5675 5673 5671 5669 5668 5666 5665 5663 5661 5659 5657 5656 5654 5651 5649 5647 5645 5644 5642 5640 5639 5637 5636 5635 5633 5632 5630 5628 5626 5624 5622 5620 5618 5616 5614 5612 5610 5608 5606 5605 5603 5602 5601 5600 5599 5597 5596 5595 5593 5592 5590 5589 5588
5691 5689 5689 5690 5692 5694 5692 5687 5685 5685 5686 5687 5686 5687 5686 5682 5681 5679 5675 5674 5673 5670 5671 5667 5660 5665 5672 5673 5673 5672 5668 5667 5666 5665 5664 5662 5661 5660 5658 5656 5654 5652 5651 5650 5648 5646 5643 5640 5639 5637 5635 5633 5631 5630 5628 5626 5625 5623 5621 5619 5617 5615 5612 5610 5609 5607 5604 5602 5600 5598 5596 5594 5592 5590 5589 5587 5586 5585 5584 5583 5581 5580 5578 5577 5576 5574
5684 5683 5682 5682 5682 5684 5685 5682 5678 5678 5679 5679 5678 5677 5677 5676 5674 5670 5668 5665 5659 5659 5664 5659 5655 5660 5663 5663 5664 5662 5658 5659 5658 5656 5655 5654 5653 5652 5649 5647 5645 5644 5643 5641 5640 5637 5634 5632 5630 5628 5626 5624 5622 5621 5619 5617 5615 5612 5610 5607 5605 5603 5600 5598 5596 5594 5592 5590 5588 5586 5584 5581 5579 5577 5575 5573 5572 5570 5569 5568 5567 5565 5564 5563 5561 5560
5677 5675 5675 5674 5673 5674 5676 5675 5673 5672 5671 5671 5670 5669 5669 5669 5667 5664 5660 5655 5649 5650 5653 5652 5651 5653 5655 5655 5653 5651 5651 5651 5649 5647 5646 5646 5644 5642 5640 5638 5637 5636 5635 5633 5631 5628 5625 5623 5621 5619 5617 5615 5613 5611 5609 5607 5604 5601 5599 5596 5593 5591 5588 5585 5583 5580 5578 5576 5574 5572 5570 5568 5566 5564 5562 5559 5557 5555 5553 5552 5551 5550 5548 5547 5546 5544
5668 5667 5668 5667 5665 5665 5667 5666 5664 5664 5663 5663 5663 5664 5664 5661 5659 5656 5650 5645 5644 5643 5642 5646 5647 5643 5645 5648 5644 5643 5644 5642 5640 5639 5637 5636 5635 5633 5631 5630 5628 5627 5625 5623 5621 5618 5615 5613 5611 5609 5607 5605 5603 5601 5599 5596 5593 5591 5588 5585 5582 5579 5576 5573 5571 5567 5565 5563 5561 5559 5557 5554 5552 5550 5548 5546 5543 5540 5538 5536 5535 5533 5532 5530 5529 5527
5660 5658 5660 5660 5658 5658 5657 5654 5654 5655 5655 5655 5655 5657 5658 5655 5650 5646 5640 5638 5640 5635 5631 5639 5641 5632 5635 5641 5638 5635 5635 5634 5632 5631 5628 5627 5626 5625 5623 5621 5620 5618 5615 5613 5611 5608 5606 5604 5602 5599 5597 5595 5593 5591 5588 5586 5583 5580 5577 5573 5570 5568 5565 5562 5559 5556 5552 5550 5548 5546 5544 5541 5539 5537 5534 5531 5528 5526 5523 5521 5519 5518 5516 5514 5512 5510
5651 5650 5653 5651 5648 5649 5648 5645 5646 5646 5645 5645 5646 5648 5651 5648 5641 5635 5632 5634 5633 5624 5623 5631 5631 5624 5627 5632 5631 5628 5626 5623 5622 5621 5620 5620 5619 5617 5615 5613 5611 5608 5605 5603 5601 5598 5596 5594 5592 5590 5587 5585 5583 5581 5578 5575 5572 5569 5565 5562 5559 5556 5553 5550 5547 5543 5540 5538 5535 5533 5530 5528 5526 5523 5520 5516 5514 5511 5509 5507 5505 5503 5502 5500 5498 5496
5642 5642 5643 5641 5639 5640 5639 5636 5638 5637 5634 5635 5638 5640 5641 5638 5633 5628 5628 5630 5624 5616 5617 5621 5618 5616 5621 5623 5621 5620 5617 5612 5612 5613 5613 5612 5610 5607 5605 5603 5602 5599 5596 5593 5591 5589 5587 5585 5582 5580 5577 5575 5573 5569 5566 5564 5560 5557 5553 5550 5546 5543 5541 5538 5534 5531 5528 5525 5522 5519 5517 5515 5512 5509 5506 5503 5500 5498 5496 5495 5493 5491 5489 5487 5485 5483
5634 5632 5632 5632 5629 5629 5630 5629 5628 5627 5624 5624 5629 5632 5631 5627 5626 5626 5625 5622 5616 5610 5611 5610 5604 5607 5616 5616 5610 5609 5608 5605 5605 5605 5604 5602 5600 5598 5597 5595 5592 5589 5586 5584 5581 5579 5577 5575 5572 5569 5567 5564 5561 5557 5554 5551 5548 5544 5541 5537 5534 5531 5529 5526 5522 5518 5515 5512 5509 5506 5504 5502 5499 5496 5494 5491 5489 5487 5486 5484 5482 5480 5478 5476 5474 5472
5625 5622 5622 5622 5619 5618 5622 5621 5619 5618 5614 5613 5619 5624 5623 5619 5618 5618 5615 5612 5610 5605 5603 5599 5595 5599 5607 5606 5600 5599 5600 5599 5598 5596 5594 5592 5591 5590 5588 5586 5583 5579 5576 5574 5572 5569 5566 5564 5561 5558 5555 5552 5548 5545 5542 5539 5536 5533 5529 5525 5522 5520 5517 5514 5511 5508 5504 5501 5498 5496 5494 5492 5489 5487 5484 5482 5480 5478 5477 5475 5473 5470 5469 5467 5465 5462
5616 5614 5613 5612 5607 5607 5611 5610 5610 5608 5601 5601 5613 5619 5616 5612 5610 5607 5604 5604 5604 5598 5593 5591 5591 5593 5595 5593 5591 5592 5592 5590 5588 5586 5584 5583 5582 5580 5579 5577 5573 5570 5567 5564 5562 5559 5555 5552 5549 5546 5543 5540 5536 5533 5530 5527 5524 5521 5518 5514 5511 5509 5506 5504 5501 5498 5495 5492 5490 5488 5485 5483 5481 5479 5476 5474 5472 5470 5468 5466 5463 5461 5459 5457 5455 5452
5607 5606 5605 5602 5598 5597 5599 5601 5600 5594 5589 5597 5609 5611 5605 5603 5600 5596 5596 5598 5596 5591 5586 5584 5584 5585 5584 5582 5582 5582 5581 5579 5577 5577 5575 5573 5572 5570 5569 5566 5562 5559 5557 5555 5552 5549 5545 5542 5539 5536 5533 5529 5525 5522 5518 5515 5513 5510 5507 5503 5501 5498 5496 5493 5491 5488 5486 5484 5481 5479 5477 5475 5472 5470 5468 5465 5463 5461 5459 5456 5454 5451 5448 5447 5445 5442
5599 5598 5595 5592 5590 5587 5588 5590 5584 5578 5585 5597 5601 5598 5595 5594 5592 5588 5587 5589 5588 5584 5579 5576 5575 5576 5574 5573 5573 5572 5570 5569 5568 5567 5565 5562 5561 5560 5558 5555 5552 5549 5547 5545 5542 5539 5535 5531 5528 5525 5522 5518 5514 5511 5507 5503 5500 5497 5495 5492 5490 5487 5485 5483 5481 5479 5477 5475 5472 5470 5468 5465 5463 5461 5459 5457 5454 5452 5449 5446 5443 5441 5438 5436 5433 5431
5591 5588 5585 5583 5580 5577 5578 5578 5572 5570 5581 5590 5589 5587 5587 5586 5583 5578 5575 5579 5582 5578 5572 5568 5568 5568 5565 5563 5563 5562 5561 5560 5559 5558 5555 5552 5550 5549 5547 5544 5541 5539 5536 5533 5530 5527 5524 5520 5517 5514 5510 5507 5503 5499 5495 5491 5488 5486 5483 5481 5479 5477 5475 5473 5472 5470 5468 5465 5463 5460 5458 5456 5454 5452 5449 5447 5445 5442 5439 5436 5433 5430 5427 5425 5423 5420
5581 5578 5577 5575 5571 5570 5568 5567 5565 5563 5569 5580 5583 5581 5578 5575 5572 5567 5563 5569 5576 5572 5563 5560 5559 5558 5556 5554 5553 5553 5551 5550 5551 5550 5546 5540 5538 5538 5536 5533 5530 5527 5524 5520 5518 5515 5512 5508 5505 5502 5499 5496 5492 5488 5485 5481 5478 5476 5473 5472 5470 5468 5466 5465 5463 5461 5459 5456 5454 5452 5449 5447 5445 5442 5440 5438 5435 5432 5429 5426 5424 5420 5417 5414 5412 5409
5571 5569 5570 5566 5562 5562 5560 5558 5557 5554 5557 5572 5578 5572 5567 5564 5561 5556 5552 5558 5569 5566 5555 5550 5550 5547 5547 5547 5545 5543 5542 5541 5543 5543 5535 5528 5527 5527 5525 5523 5519 5515 5512 5509 5505 5503 5500 5497 5494 5491 5488 5485 5482 5479 5476 5473 5470 5467 5465 5464 5462 5460 5459 5458 5456 5453 5451 5448 5446 5443 5440 5438 5435 5433 5431 5428 5425 5422 5420 5417 5414 5410 5407 5404 5402 5400
5562 5561 5561 5557 5554 5556 5553 5549 5548 5546 5551 5563 5566 5560 5559 5556 5551 5546 5540 5547 5561 5558 5544 5540 5541 5539 5538 5537 5535 5535 5533 5531 5533 5533 5525 5517 5516 5516 5514 5512 5508 5504 5501 5497 5494 5492 5489 5486 5483 5481 5478 5475 5473 5470 5468 5465 5462 5460 5458 5457 5455 5453 5452 5450 5448 5446 5443 5440 5438 5435 5432 5429 5426 5424 5421 5419 5416 5413 5410 5407 5404 5401 5398 5394 5391 5389
5555 5553 5552 5549 5548 5550 5546 5541 5539 5540 5546 5554 5553 5549 5548 5545 5541 5538 5534 5539 5548 5543 5534 5533 5533 5530 5529 5527 5525 5526 5525 5523 5523 5521 5515 5508 5506 5504 5502 5500 5497 5494 5490 5487 5484 5482 5479 5476 5474 5472 5469 5467 5465 5463 5460 5458 5456 5454 5452 5450 5448 5447 5445 5443 5441 5438 5436 5433 5430 5427 5423 5420 5417 5415 5412 5409 5406 5403 5400 5397 5394 5391 5388 5385 5381 5378
5548 5546 5544 5543 5544 5544 5539 5534 5531 5533 5541 5545 5541 5538 5537 5532 5530 5532 5531 5531 5531 5527 5527 5527 5524 5521 5521 5518 5516 5516 5515 5514 5512 5510 5505 5500 5496 5494 5491 5488 5487 5484 5481 5478 5475 5472 5470 5467 5465 5463 5461 5460 5458 5456 5453 5451 5449 5447 5445 5443 5441 5440 5438 5435 5433 5430 5428 5425 5422 5418 5415 5412 5409 5406 5402 5399 5396 5394 5390 5387 5384 5381 5378 5375 5372 5368
5542 5539 5537 5537 5537 5535 5533 5528 5522 5525 5536 5538 5529 5524 5525 5522 5521 5523 5523 5520 5517 5516 5517 5516 5514 5513 5512 5508 5507 5507 5505 5504 5501 5498 5494 5490 5486 5484 5481 5477 5476 5475 5472 5470 5467 5465 5462 5459 5457 5455 5454 5452 5450 5448 5447 5445 5443 5441 5438 5436 5435 5433 5430 5428 5425 5422 5420 5416 5413 5410 5406 5403 5400 5396 5393 5390 5386 5384 5381 5377 5374 5371 5368 5365 5362 5359
5534 5532 5530 5531 5531 5527 5524 5521 5515 5517 5528 5528 5518 5514 5515 5513 5513 5514 5511 5507 5506 5506 5506 5505 5505 5504 5500 5498 5497 5496 5494 5494 5491 5487 5484 5479 5475 5473 5471 5468 5466 5464 5463 5461 5459 5457 5454 5452 5450 5448 5446 5445 5443 5441 5439 5437 5435 5433 5431 5429 5427 5425 5423 5421 5417 5414 5411 5408 5404 5401 5397 5394 5391 5387 5384 5380 5377 5375 5372 5368 5365 5361 5358 5355 5352 5349
5525 5526 5526 5525 5522 5516 5513 5512 5510 5513 5517 5514 5509 5508 5506 5504 5505 5504 5499 5495 5495 5495 5495 5494 5494 5493 5490 5488 5486 5484 5483 5482 5480 5477 5473 5469 5466 5464 5461 5460 5458 5455 5454 5452 5450 5449 5447 5445 5443 5441 5439 5438 5436 5434 5432 5430 5428 5426 5423 5422 5420 5418 5415 5413 5409 5406 5403 5399 5396 5392 5388 5385 5382 5378 5375 5371 5368 5366 5362 5359 5356 5353 5349 5345 5342 5340
5518 5520 5520 5517 5512 5507 5505 5505 5505 5508 5507 5501 5499 5500 5497 5494 5494 5492 5488 5486 5484 5483 5483 5482 5482 5482 5480 5477 5475 5473 5471 5469 5467 5465 5463 5460 5458 5456 5453 5451 5449 5447 5446 5444 5442 5440 5439 5437 5436 5434 5432 5430 5429 5427 5425 5423 5420 5418 5416 5414 5412 5410 5407 5404 5401 5398 5394 5390 5387 5383 5380 5377 5373 5370 5366 5363 5359 5357 5353 5350 5347 5344 5340 5337 5333 5331
5512 5513 5510 5506 5503 5500 5498 5498 5498 5500 5497 5492 5489 5489 5487 5485 5485 5482 5478 5475 5473 5472 5472 5470 5470 5470 5467 5465 5463 5462 5460 5458 5456 5454 5452 5451 5450 5448 5446 5444 5442 5440 5439 5436 5434 5432 5431 5429 5428 5426 5424 5423 5421 5419 5417 5415 5413 5410 5408 5406 5404 5401 5399 5396 5392 5389 5385 5381 5378 5374 5371 5368 5365 5361 5357 5354 5350 5348 5345 5341 5339 5336 5332 5328 5325 5323
5507 5505 5499 5496 5495 5491 5490 5493 5493 5489 5486 5482 5480 5479 5477 5477 5477 5473 5468 5464 5463 5462 5461 5460 5458 5457 5455 5454 5453 5450 5449 5449 5447 5445 5444 5442 5441 5440 5438 5436 5435 5434 5432 5430 5428 5425 5423 5421 5420 5418 5416 5415 5413 5411 5409 5407 5404 5402 5400 5397 5395 5393 5390 5387 5383 5380 5376 5373 5369 5366 5363 5360 5356 5353 5349 5346 5342 5339 5336 5333 5330 5327 5324 5320 5317 5316
5500 5497 5491 5488 5486 5482 5482 5487 5486 5479 5474 5472 5470 5469 5468 5468 5467 5463 5458 5456 5455 5453 5451 5450 5448 5446 5445 5444 5442 5441 5441 5440 5439 5437 5436 5434 5433 5432 5430 5429 5428 5426 5425 5423 5421 5418 5416 5414 5412 5410 5409 5407 5405 5403 5401 5398 5395 5393 5391 5389 5386 5384 5381 5377 5374 5371 5367 5364 5361 5357 5354 5351 5348 5344 5341 5338 5335 5332 5329 5326 5322 5319 5316 5312 5309 5308
5491 5488 5485 5482 5479 5475 5474 5478 5476 5468 5463 5463 5463 5462 5461 5459 5456 5453 5449 5448 5447 5445 5443 5441 5439 5437 5436 5435 5434 5432 5432 5433 5432 5429 5427 5427 5426 5425 5423 5421 5420 5418 5417 5415 5413 5411 5409 5406 5404 5403 5401 5399 5397 5395 5392 5389 5386 5384 5382 5380 5377 5375 5372 5368 5365 5362 5358 5355 5352 5349 5346 5342 5339 5336 5333 5330 5328 5325 5322 5318 5314 5311 5309 5306 5302 5300
5483 5482 5479 5473 5468 5467 5468 5469 5465 5456 5452 5455 5458 5457 5454 5451 5447 5444 5441 5440 5438 5436 5434 5432 5430 5429 5428 5427 5427 5425 5424 5425 5424 5421 5420 5420 5419 5417 5415 5414 5412 5410 5409 5407 5404 5403 5401 5398 5396 5395 5393 5391 5389 5386 5383 5380 5377 5375 5373 5371 5368 5366 5363 5359 5357 5353 5350 5346 5344 5340 5338 5334 5331 5328 5325 5322 5320 5318 5315 5312 5307 5302 5301 5299 5297 5294
5476 5476 5472 5463 5457 5458 5460 5458 5452 5445 5443 5447 5451 5450 5447 5444 5440 5436 5434 5433 5431 5428 5426 5423 5422 5422 5421 5420 5420 5418 5417 5417 5415 5413 5412 5412 5410 5409 5407 5405 5403 5402 5400 5398 5396 5394 5392 5390 5388 5386 5384 5382 5380 5378 5375 5372 5369 5366 5365 5362 5359 5357 5353 5350 5348 5345 5341 5338 5335 5332 5329 5326 5323 5321 5318 5315 5312 5310 5308 5306 5302 5297 5293 5291 5290 5289